Location: Unspecified
(0.0000°N, 0.0000°E)
Time: 22:37:15
(UTC+00:00)

DMSP F15 (USA 147) - Pass Details

Date: 07 October 2020
Orbit: 829 x 845 km, 99.0° (Epoch: 26 October)

Event Time Altitude Azimuth Distance (km) Brightness Sun altitude
Rises 03:17:33 0° 24° (NNE) 3,356 8.5 -37.3°
Reaches altitude 10° 03:19:59 10° 30° (NNE) 2,426 7.8 -36.7°
Enters shadow 03:20:22 12° 31° (NNE) 2,280 7.6 -36.7°
Exits shadow 03:31:24 - 179° (S) 2,861 8.0 -33.9°
Sets 03:32:44 0° 182° (S) 3,379 8.4 -33.6°
